Temp
36 35 34 33 32 32 32 30 28 26 25 24 24 25 25 25 24 24 24 23 22 21 21 22 22 22 22 22 22 22 22 22 21 20 20 21 20 20 21 22 21 21 20
34 35 35 33 31 32 32 31 29 27 25 25 25 26 26 26 25 24 24 23 22 21 21 22 23 22 22 22 22 22 22 21 21 21 22 22 22 22 21 21 21 20 19
33 34 34 33 31 29 29 30 30 28 26 26 26 26 26 26 26 25 24 23 22 22 21 21 22 23 22 22 21 21 21 20 19 20 22 23 23 22 20 19 20 18 18
32 33 33 34 32 31 29 29 29 29 28 26 26 27 27 27 27 26 25 24 22 22 22 22 21 22 22 22 21 21 21 20 20 18 19 20 19 23 21 20 19 18 17
31 32 32 32 32 32 31 29 28 28 29 28 26 26 26 27 28 27 26 25 24 22 22 21 21 21 22 21 22 21 20 20 21 18 19 19 19 18 20 20 18 17 18
31 31 30 30 31 31 31 31 29 29 28 28 27 26 26 25 26 27 26 25 24 23 22 21 21 21 21 21 21 21 20 20 20 20 20 19 18 17 18 18 19 20 19
30 28 28 29 29 30 30 30 29 29 28 28 27 26 25 25 25 26 26 24 24 23 21 21 21 21 21 21 21 21 20 19 19 20 20 18 18 17 17 17 18 19 19
27 27 28 28 29 28 28 29 28 28 28 28 27 26 26 24 24 25 25 25 24 23 22 21 21 20 20 20 20 20 19 19 19 19 19 17 16 17 17 17 17 18 18
26 26 25 25 24 25 26 26 26 26 27 28 28 26 25 24 24 24 24 25 24 23 22 21 20 20 20 20 20 20 19 18 18 17 16 15 15 15 15 16 16 16 18
23 23 24 23 23 23 23 23 23 24 26 26 27 26 25 25 24 24 23 23 24 23 22 19 20 20 20 20 20 19 18 17 16 14 14 14 14 14 13 13 14 14 15
22 22 22 22 22 22 22 22 22 23 24 24 24 25 25 24 24 23 23 22 22 22 20 18 18 19 19 19 18 16 16 15 13 12 13 13 12 12 12 11 12 13 13
22 22 22 22 21 21 21 21 21 22 22 23 23 23 23 23 23 23 22 21 21 20 19 19 18 18 18 18 16 16 14 12 12 12 12 11 11 11 11 10 11 11 11
21 22 22 21 21 21 20 20 20 20 20 21 22 22 21 22 22 22 22 21 20 19 18 18 17 17 17 16 15 15 13 12 12 12 11 10 10 10 10 10 11 10 11
20 21 21 21 20 20 20 20 20 19 19 19 20 21 21 21 21 21 21 20 19 17 17 17 17 16 16 15 14 12 11 10 10 11 10 10 10 10 9 10 10 10 10
19 19 20 20 20 20 19 19 19 18 18 18 18 19 17 16 17 18 17 19 18 17 17 16 16 15 14 13 12 10 9 10 10 10 10 9 9 9 10 10 9 9 9
19 19 19 20 20 19 19 18 18 18 18 18 17 17 17 15 14 15 15 15 16 15 15 14 14 13 12 11 10 8 9 9 9 8 8 8 8 9 9 8 8 7 8
19 19 19 19 19 19 18 18 18 18 18 17 17 16 16 15 12 12 13 13 13 13 13 12 12 11 10 9 8 9 9 8 9 8 7 7 6 6 6 6 6 5 5
18 18 19 18 18 18 17 17 18 18 18 18 18 17 16 15 12 11 11 11 11 11 11 10 10 9 9 8 8 8 8 8 7 7 7 5 4 4 4 3 3 3 2
17 17 17 17 16 16 16 17 17 17 17 18 18 17 17 16 13 10 10 10 10 9 9 9 8 7 7 6 7 9 7 6 6 5 5 5 4 4 4 5 4 3 2
15 15 16 16 15 15 16 16 16 16 16 17 17 16 16 16 14 10 9 9 8 8 8 7 7 7 5 6 6 8 5 4 4 4 4 4 3 3 3 2 1 1 -1
15 15 15 15 15 15 15 15 16 16 16 16 16 15 15 15 15 10 8 7 7 6 6 6 5 5 5 4 6 8 6 4 2 2 2 3 3 2 2 2 1 -0 -1
16 15 15 15 15 15 15 15 15 16 15 15 15 14 14 13 12 9 7 6 5 4 3 3 3 3 2 3 4 5 7 4 3 1 1 1 1 -0 -0 -1 -1 -1 -1
16 15 15 15 15 15 15 15 15 15 14 14 13 12 12 10 9 7 6 4 4 3 3 3 2 1 1 2 2 3 4 3 2 1 0 0 -0 -1 -2 -2 -2 -2 -1
16 15 15 15 15 15 15 15 14 14 14 13 13 10 8 6 7 6 5 3 3 3 2 2 2 0 0 0 1 2 2 1 0 -0 -1 -1 -2 -2 -2 -2 -2 -1 -1
14 15 15 15 15 15 14 14 14 14 13 13 12 9 7 5 5 5 5 3 3 3 2 2 1 0 0 -0 0 0 0 -0 -1 -1 -2 -2 -2 -2 -2 -2 -1 -2 -2
13 14 14 15 14 14 14 14 14 14 13 12 10 7 5 4 4 3 2 2 3 3 2 2 1 0 -0 -1 -0 0 1 -0 -2 -2 -1 -1 -1 -1 -1 -1 -1 -1 -2
Height
673 678 683 690 694 698 705 713 721 729 735 740 744 748 751 756 759 761 764 768 772 777 781 785 788 791 794 796 800 803 805 807 810 813 815 815 816 817 817 818 820 821 823
671 671 675 685 691 693 698 706 713 721 728 733 736 741 743 747 751 755 758 761 765 769 773 777 780 785 789 792 794 796 799 802 806 808 809 809 810 811 813 815 817 819 821
672 672 673 678 690 697 697 702 707 714 720 725 730 733 737 740 743 745 749 752 757 761 765 769 772 775 781 785 789 792 794 797 801 803 803 803 803 803 811 813 815 816 818
669 669 672 674 681 689 697 702 705 708 712 717 721 722 724 727 730 735 741 745 748 752 756 760 764 767 771 776 779 783 788 793 795 800 800 800 801 798 807 811 813 814 814
669 670 669 672 675 681 688 694 699 703 705 707 712 715 718 719 723 727 731 735 739 743 748 752 756 760 763 767 772 777 781 784 788 791 795 797 799 800 802 803 808 811 810
664 666 672 675 677 679 680 683 689 694 697 700 703 705 708 714 717 719 722 727 732 735 739 744 749 753 756 759 764 768 772 776 781 784 787 790 792 795 798 800 801 802 805
662 671 676 676 676 675 677 679 682 686 690 693 696 699 703 708 711 713 715 720 723 725 728 734 738 742 746 751 755 760 764 768 773 776 781 784 786 788 792 796 797 798 800
670 672 674 675 674 676 677 678 680 682 684 686 688 693 695 699 703 706 708 711 714 717 721 725 731 736 740 743 747 751 756 760 766 771 775 779 782 785 788 791 795 796 798
672 674 679 682 685 684 680 681 681 679 679 678 681 685 689 693 696 699 702 704 706 711 714 718 723 727 732 737 740 744 748 753 759 764 769 775 779 781 786 789 791 795 795
681 682 684 687 687 686 684 683 682 680 679 678 678 680 684 688 691 694 696 698 700 704 707 711 717 720 725 729 733 737 740 746 753 758 765 768 773 778 783 787 791 794 795
688 689 690 689 689 687 684 682 681 679 678 679 679 678 680 683 686 688 691 693 696 697 700 704 710 714 716 721 727 730 734 739 746 753 758 763 768 774 779 784 789 792 793
690 689 690 689 689 688 686 683 682 680 679 678 677 676 677 679 681 682 684 686 690 693 696 700 704 708 712 714 719 724 730 736 740 746 753 759 765 770 776 780 785 789 790
690 690 689 689 689 688 688 686 683 683 681 678 676 674 675 676 677 677 678 680 684 687 692 695 698 702 704 707 712 718 724 731 735 740 748 755 760 766 773 777 780 786 786
694 692 691 690 691 690 688 687 685 684 682 679 676 673 672 672 673 673 674 675 678 682 688 691 694 698 701 703 707 714 722 726 731 738 745 752 758 764 770 774 779 782 785
694 694 692 689 689 688 688 688 686 685 682 680 677 675 674 672 671 670 671 673 675 679 683 686 689 692 695 699 703 709 714 719 730 737 743 749 757 762 766 770 774 779 783
689 690 689 688 687 686 686 686 686 684 682 679 677 675 672 673 671 671 671 671 672 675 678 679 681 685 690 693 699 706 710 718 725 733 740 745 753 758 761 766 769 774 778
686 687 687 686 685 684 683 682 681 681 679 677 675 674 672 671 671 670 669 669 669 669 672 675 676 680 684 691 697 701 705 713 722 730 735 741 750 754 757 763 767 772 776
683 683 683 683 683 683 682 681 679 678 676 673 671 670 669 669 669 668 667 667 668 668 668 671 674 676 681 688 695 699 704 712 719 727 733 741 747 752 754 759 766 772 775
685 683 683 683 683 682 680 678 675 674 672 669 668 667 667 665 664 665 665 664 665 667 668 669 672 676 683 689 694 697 704 712 721 728 734 741 746 750 753 759 764 770 772
690 688 683 683 682 679 676 673 670 670 668 666 665 664 664 662 660 661 663 662 662 665 668 669 672 675 680 688 692 696 703 711 720 729 735 741 745 747 753 758 762 767 769
683 682 680 677 675 675 672 668 666 664 663 663 662 661 660 659 657 657 660 660 661 664 667 669 672 676 680 685 690 694 699 707 718 725 732 736 739 745 750 756 759 761 766
671 671 669 667 666 666 665 662 659 656 657 656 656 656 657 656 654 654 656 658 659 661 666 669 671 676 681 687 693 694 694 704 714 724 733 736 741 747 751 756 759 761 765
660 659 657 655 654 653 653 651 650 652 651 650 649 651 650 651 650 651 652 656 657 659 661 667 671 674 676 687 694 693 698 706 714 721 730 738 743 748 751 756 760 761 763
650 648 646 644 642 643 642 642 644 645 645 643 642 643 645 644 646 646 647 650 652 656 659 661 667 673 679 681 685 696 705 712 717 726 736 741 748 748 754 759 761 762 763
645 639 636 634 632 633 633 633 635 636 636 635 634 635 638 639 640 640 640 643 645 648 652 656 659 667 675 681 683 690 698 710 716 725 738 743 749 749 754 760 760 761 764
640 634 628 624 622 623 622 622 624 624 623 623 624 627 630 633 635 636 637 640 643 646 650 653 656 664 670 679 687 691 704 713 721 730 731 740 743 748 756 758 758 761 763
Wind_Speed
23 27 24 21 27 33 34 33 32 31 30 30 29 27 27 27 27 28 28 29 28 31 31 28 26 25 26 25 23 21 20 17 16 12 14 13 14 15 14 12 12 10 10
18 19 24 20 19 26 30 33 31 31 32 29 29 27 28 28 28 27 28 30 30 31 33 32 28 28 26 26 25 25 21 19 19 14 13 6 13 17 14 13 11 9 8
19 18 19 23 21 20 20 25 28 29 31 30 28 27 26 26 26 29 29 31 32 32 34 34 31 30 30 27 27 25 24 20 20 21 11 4 7 10 8 9 9 8 8
21 19 18 19 24 24 25 25 26 29 30 32 30 30 28 27 30 28 29 30 34 34 34 35 36 31 32 29 31 29 27 23 21 16 21 10 2 5 5 7 8 8 9
20 18 17 19 21 24 25 21 23 27 29 31 33 30 30 27 27 28 28 30 31 35 35 36 35 35 32 32 28 30 29 29 23 23 18 17 11 6 6 6 7 10 12
17 15 14 19 21 25 27 25 27 26 27 28 30 34 31 32 27 27 26 26 29 32 35 35 36 36 34 32 33 30 32 30 28 22 19 20 11 14 8 6 8 11 11
10 6 12 16 21 21 20 18 18 21 24 26 28 31 33 29 31 27 27 26 27 30 35 37 38 38 38 34 32 32 31 32 28 26 24 20 16 9 13 8 6 6 9
7 8 8 11 11 11 13 17 21 24 25 24 25 27 30 30 30 29 28 28 28 31 30 36 37 37 37 36 34 33 31 31 30 25 20 18 17 16 15 9 9 6 8
1 3 5 6 9 12 11 12 13 16 18 18 20 21 24 26 26 29 28 29 27 25 29 30 36 37 36 36 33 31 31 28 27 24 23 17 15 14 11 11 10 7 6
4 4 5 4 6 6 6 8 11 13 14 15 17 18 19 22 24 24 25 26 26 26 25 32 33 34 35 35 34 30 30 30 27 22 23 25 18 15 11 11 9 7 7
3 2 4 5 6 6 6 6 8 10 11 13 15 16 18 20 22 23 24 26 24 24 27 28 34 34 33 33 33 27 30 29 26 26 27 24 19 16 15 12 9 9 9
3 3 2 4 6 7 8 7 8 8 8 10 12 13 16 18 22 23 25 24 24 24 29 27 34 34 33 35 34 28 28 29 31 32 29 24 21 18 16 15 12 11 8
9 6 3 4 6 9 10 9 9 10 10 10 10 11 13 16 21 22 23 22 26 26 27 28 29 31 34 33 33 31 30 30 31 32 30 25 24 18 15 14 13 10 7
13 9 8 7 7 9 11 12 10 11 12 12 11 11 12 13 16 19 20 23 26 28 29 31 30 32 30 32 32 29 29 29 30 32 27 24 21 17 17 14 11 8 8
10 11 13 11 10 12 11 12 13 13 13 13 13 12 12 13 12 10 15 23 27 29 28 32 32 34 37 35 35 34 33 35 33 30 27 20 17 20 18 14 12 11 10
12 13 12 12 12 15 13 12 14 14 15 14 14 14 12 11 12 14 16 21 27 28 25 30 36 35 35 35 38 37 36 36 36 30 25 26 24 24 21 19 16 13 9
16 15 15 14 15 15 16 16 17 17 17 16 15 14 14 13 11 15 18 21 25 29 30 31 33 33 31 33 37 40 38 36 35 32 30 27 23 24 21 18 13 12 11
16 15 14 14 16 17 20 20 20 19 20 18 17 15 14 13 15 16 17 19 20 23 26 29 30 32 33 37 42 41 37 34 34 31 28 22 22 18 16 13 9 7 4
16 11 15 15 19 22 23 23 23 21 21 20 18 17 16 15 14 16 20 19 21 22 23 27 28 30 32 41 41 39 34 32 30 26 25 21 21 22 20 15 13 11 12
18 23 20 19 22 25 26 25 25 23 23 23 21 19 18 17 14 14 18 20 21 24 24 25 28 31 39 41 40 37 36 34 32 26 22 20 20 21 21 13 13 12 8
25 27 30 28 28 28 28 27 27 25 24 23 22 20 19 19 17 14 15 19 20 23 24 26 25 28 38 41 41 38 39 36 29 26 24 24 21 23 21 15 13 12 10
24 28 26 27 30 31 29 30 29 26 23 24 22 21 19 17 11 16 15 20 23 23 20 21 23 26 32 36 35 35 38 36 30 25 22 24 21 19 15 12 13 12 11
22 29 27 27 29 31 29 27 30 27 23 21 21 21 18 18 15 18 19 23 24 21 20 20 18 22 33 34 28 21 29 30 28 26 27 27 23 19 16 12 13 13 11
20 27 26 21 24 27 29 29 27 27 26 23 21 19 24 22 20 22 22 23 22 20 21 22 20 22 23 28 34 29 27 24 28 28 29 26 21 16 15 13 12 11 10
30 28 24 22 26 28 29 29 26 27 28 28 25 18 19 17 22 26 26 26 27 29 27 25 28 28 24 26 33 34 34 33 35 35 29 23 18 17 14 12 12 10 9
26 26 29 28 30 31 32 33 31 31 29 27 24 19 17 18 20 20 16 19 23 26 26 26 32 26 29 36 37 37 31 34 35 27 25 20 19 15 14 13 13 11 10
Wind_Direction
224 224 203 221 214 211 196 192 190 195 196 200 200 207 206 209 212 213 212 209 209 210 208 213 212 208 211 214 211 215 224 214 227 213 237 238 235 232 239 242 244 243 238
235 231 210 201 215 214 206 194 193 192 199 202 206 209 211 212 214 215 215 211 210 208 208 208 210 209 212 214 212 209 214 213 218 209 227 220 223 222 229 236 233 234 218
235 225 235 189 193 216 221 218 209 205 202 209 209 213 217 219 211 215 213 212 210 210 210 210 208 206 207 212 211 209 213 204 211 217 221 211 236 171 175 205 204 196 218
246 242 224 230 204 198 203 216 223 217 213 208 218 214 213 215 217 215 214 212 209 210 210 209 208 208 203 210 207 206 208 200 204 207 225 235 269 206 162 186 209 217 225
233 245 244 245 238 218 211 209 217 222 222 212 212 217 222 223 222 217 217 212 210 209 211 210 209 209 206 206 208 203 204 206 210 195 210 214 224 229 239 224 201 218 228
232 236 252 259 245 244 243 218 206 220 221 220 215 216 219 222 223 226 213 215 212 208 209 210 210 210 208 204 206 204 202 206 211 200 203 201 187 201 197 220 227 232 196
218 231 254 249 245 246 245 240 240 228 224 217 221 220 222 224 222 224 218 210 212 209 208 208 208 208 207 205 201 203 201 204 204 208 208 209 212 194 190 201 215 226 221
200 236 235 243 260 256 261 252 238 238 237 229 218 225 222 222 227 225 224 214 213 212 209 208 210 210 207 204 203 200 200 201 206 211 200 195 187 182 178 184 211 228 231
22 8 315 311 312 290 272 259 258 258 252 244 226 225 224 224 227 228 229 230 218 217 210 208 210 208 207 204 201 199 197 196 196 189 185 184 178 176 181 189 195 214 238
16 357 318 340 306 301 292 285 273 265 261 250 241 230 233 230 228 233 225 225 222 215 212 203 212 210 207 203 197 195 189 182 177 180 176 180 179 176 173 179 189 208 245
36 1 333 332 347 351 346 326 310 287 265 256 259 254 236 233 231 230 227 229 224 213 205 202 211 213 204 195 190 179 181 177 178 180 178 175 170 169 176 177 185 200 206
346 327 316 323 337 349 349 351 346 326 305 280 264 256 253 251 244 232 228 220 225 215 203 208 205 209 200 190 186 178 178 180 172 181 177 171 175 179 168 175 187 199 202
330 312 330 323 333 333 337 338 340 338 328 307 285 266 257 255 252 244 234 221 218 214 204 202 196 199 193 185 182 181 175 176 176 176 175 174 169 169 181 182 187 199 197
301 307 308 317 321 317 329 324 327 328 331 328 313 297 288 278 260 254 240 225 211 203 200 202 205 202 193 186 175 172 173 168 173 175 169 171 170 175 175 179 183 185 200
279 290 300 308 309 311 313 310 318 318 324 322 320 305 294 299 295 258 241 228 216 206 209 206 203 198 192 187 180 177 171 172 171 171 173 172 177 181 180 176 179 189 202
268 281 279 281 295 298 295 304 302 308 314 314 316 313 301 294 284 259 238 224 213 209 204 199 196 188 189 189 184 177 171 167 168 162 160 171 183 183 176 176 171 182 195
282 280 280 285 286 290 300 293 300 304 301 304 306 312 307 294 282 272 250 228 213 207 200 194 186 183 187 186 178 174 171 167 173 163 174 171 183 184 180 188 189 201 211
287 286 278 278 288 297 297 297 293 295 295 292 298 301 304 294 286 274 250 237 223 209 196 191 186 184 189 181 178 175 168 164 169 171 177 164 172 170 158 155 160 169 193
332 290 286 293 296 297 293 292 289 288 289 285 286 294 301 296 280 276 250 233 219 206 196 192 183 186 181 175 171 173 166 163 162 163 163 164 161 170 158 158 167 176 194
295 298 284 283 286 290 293 289 287 285 286 286 283 284 289 292 283 266 250 229 213 202 188 177 181 187 177 176 177 177 159 151 153 158 159 163 169 166 159 162 177 193 199
283 276 272 272 270 274 280 277 276 274 278 282 280 278 281 287 283 259 238 217 194 183 179 175 177 180 177 172 180 181 168 157 150 152 156 165 169 163 165 160 177 179 176
283 276 272 268 266 266 264 263 267 269 272 272 269 267 270 283 265 246 224 203 189 171 165 161 158 172 169 173 176 173 176 169 159 157 157 163 158 153 157 167 168 160 149
285 279 272 269 265 264 260 257 256 266 270 272 267 261 262 267 247 234 206 187 183 172 165 164 160 161 166 169 165 173 167 157 155 152 163 155 152 148 142 148 146 137 139
288 283 279 274 270 266 262 256 257 261 266 265 261 245 257 264 244 228 217 192 183 180 174 169 164 158 161 159 158 156 150 148 144 145 145 145 144 137 138 139 134 138 144
290 284 274 271 270 270 266 263 259 253 250 257 261 245 237 240 228 220 213 203 201 192 182 181 168 163 167 168 156 149 144 146 141 139 138 139 141 134 146 149 141 135 131
294 288 283 279 276 273 271 266 261 255 249 245 244 230 223 230 220 204 198 209 211 199 194 184 173 165 159 156 150 146 148 147 141 137 143 149 146 153 162 152 140 139 138